Weather History for Spokane Fairchild, WA

Change the Weather History Date:

Thursday, January 30, 2014

  Actual Average Record
Temperature  
Mean Temperature 26 °F -  
Max Temperature 32 °F 35 °F 46 °F (1999)
Min Temperature 21 °F 24 °F 10 °F (2007)
Degree Days  
Heating Degree Days 38    
Moisture  
Dew Point 26 °F    
Average Humidity 97    
Maximum Humidity 100    
Minimum Humidity 93    
Precipitation  
Precipitation 0.00 in - - ()
Snow  
Snow 0.00 in - - ()
Snow Depth 3.00 in    
Sea Level Pressure  
Sea Level Pressure 29.76 in    
Wind  
Wind Speed 5 mph (South)    
Max Wind Speed 9 mph    
Max Gust Speed -    
Visibility 3 miles    
Events Fog , Snow    
Averages and records for this station are not official NWS values.
T = Trace of Precipitation, MM = Missing Value Source: NWS Daily Summary

Daily Weather History Graph

Daily Weather History Graph

Search for Another Location

Airport:

Trip Planner

Search our weather history database for the weather conditions in past years. The results will help you decide how hot, cold, wet, or windy it might be!

Date:

Astronomy

Jan. 30, 2014 Rise Set
Actual Time 7:19 AM PST 4:48 PM PST
Civil Twilight 6:46 AM PST 5:22 PM PST
Nautical Twilight 6:09 AM PST 5:59 PM PST
Astronomical Twilight 5:33 AM PST 6:35 PM PST
Moon 6:45 AM PST (1/30) 5:11 PM PST (1/30)
Length of Visible Light 10h 35m
Length of Day
9h 29m
Waning Crescent, 0% of the Moon is Illuminated
Jan 30
Waning Crescent
Jan 30
New
Feb 6
First Quarter
Feb 14
Full
Feb 22
Last Quarter

Hourly Weather History & Observations

Time (PST) Temp. Windchill Dew Point Humidity Pressure Visibility Wind Dir Wind Speed Gust Speed Precip Events Conditions
12:13 AM 23.0 °F 17.0 °F 21.2 °F 93% 29.69 in 2.5 mi WSW 4.6 mph - N/A   Scattered Clouds
12:15 AM 23.0 °F 17.0 °F 21.2 °F 93% 29.69 in 1.5 mi WSW 4.6 mph - N/A   Scattered Clouds
12:16 AM 23.0 °F 17.0 °F 21.2 °F 93% 29.69 in 1.0 mi WSW 4.6 mph - N/A   Mist
12:17 AM 23.0 °F 17.0 °F 21.2 °F 93% 29.69 in 1.0 mi WSW 4.6 mph - N/A   Mist
12:19 AM 23.0 °F 17.0 °F 21.2 °F 93% 29.69 in 0.8 mi WSW 4.6 mph - N/A   Mist
12:21 AM 23.0 °F 15.8 °F 21.2 °F 93% 29.69 in 0.5 mi WSW 5.8 mph - N/A Fog Light Freezing Fog
12:22 AM 23.0 °F 15.8 °F 21.2 °F 93% 29.69 in 0.5 mi WSW 5.8 mph - N/A Fog Light Freezing Fog
12:31 AM 23.0 °F 15.8 °F 21.2 °F 93% 29.69 in 0.5 mi WSW 5.8 mph - N/A Fog Light Freezing Fog
12:32 AM 23.0 °F 15.8 °F 21.2 °F 93% 29.69 in 0.5 mi WSW 5.8 mph - N/A Fog Light Freezing Fog
12:34 AM 23.0 °F 15.8 °F 21.2 °F 93% 29.69 in 0.8 mi WSW 5.8 mph - N/A   Mist
12:36 AM 23.0 °F 15.8 °F 21.2 °F 93% 29.69 in 1.0 mi WSW 5.8 mph - N/A   Mist
12:38 AM 23.0 °F 15.8 °F 21.2 °F 93% 29.69 in 1.2 mi WSW 5.8 mph - N/A   Overcast
12:40 AM 23.0 °F 15.8 °F 21.2 °F 93% 29.69 in 1.8 mi SW 5.8 mph - N/A   Overcast
12:44 AM 23.0 °F 15.8 °F 21.2 °F 93% 29.70 in 2.0 mi SW 5.8 mph - N/A   Overcast
12:48 AM 23.0 °F 15.8 °F 21.2 °F 93% 29.70 in 1.8 mi WSW 5.8 mph - N/A   Overcast
12:50 AM 23.0 °F 15.8 °F 21.2 °F 93% 29.70 in 1.5 mi WSW 5.8 mph - N/A   Overcast
12:52 AM 23.0 °F 15.8 °F 21.2 °F 93% 29.70 in 1.2 mi WSW 5.8 mph - N/A   Overcast
12:53 AM 23.0 °F 15.8 °F 21.2 °F 93% 29.70 in 1.2 mi WSW 5.8 mph - N/A   Light Freezing Drizzle
12:54 AM 23.0 °F 15.8 °F 21.2 °F 93% 29.70 in 1.0 mi WSW 5.8 mph - N/A   Light Freezing Drizzle
12:56 AM 23.0 °F 14.7 °F 21.2 °F 93% 29.70 in 0.8 mi WSW 6.9 mph - N/A   Light Freezing Drizzle
12:58 AM 22.8 °F 15.5 °F 21.7 °F 96% 29.79 in 0.8 mi WSW 5.8 mph - 0.00 in   Light Freezing Drizzle
12:59 AM 23.0 °F 15.8 °F 21.2 °F 93% 29.70 in 0.5 mi WSW 5.8 mph - N/A Fog Light Freezing Drizzle
1:00 AM 23.0 °F 17.0 °F 21.2 °F 93% 29.70 in 0.5 mi WSW 4.6 mph - N/A Fog Light Freezing Drizzle
1:01 AM 23.0 °F 17.0 °F 21.2 °F 93% 29.70 in 0.5 mi WSW 4.6 mph - N/A Fog Light Freezing Drizzle
1:06 AM 23.0 °F 18.4 °F 21.2 °F 93% 29.70 in 0.5 mi West 3.5 mph - N/A Fog Light Freezing Drizzle
1:11 AM 23.0 °F 17.0 °F 21.2 °F 93% 29.70 in 0.5 mi WSW 4.6 mph - N/A Fog Light Freezing Drizzle
1:12 AM 23.0 °F 17.0 °F 21.2 °F 93% 29.70 in 0.5 mi WSW 4.6 mph - N/A Fog Light Freezing Drizzle
1:14 AM 23.0 °F 18.4 °F 21.2 °F 93% 29.70 in 0.5 mi WSW 3.5 mph - N/A Fog Light Freezing Drizzle
1:16 AM 23.0 °F 18.4 °F 21.2 °F 93% 29.70 in 0.8 mi SW 3.5 mph - N/A   Light Freezing Drizzle
1:17 AM 23.0 °F 17.0 °F 21.2 °F 93% 29.70 in 0.8 mi SW 4.6 mph - N/A   Light Freezing Drizzle
1:21 AM 23.0 °F 18.4 °F 21.2 °F 93% 29.70 in 1.0 mi WSW 3.5 mph - N/A   Light Freezing Drizzle
1:26 AM 23.0 °F 17.0 °F 21.2 °F 93% 29.79 in 0.8 mi WSW 4.6 mph - N/A   Light Freezing Drizzle
1:35 AM 23.0 °F 18.4 °F 21.2 °F 93% 29.70 in 0.2 mi West 3.5 mph - N/A Fog Light Freezing Fog
1:37 AM 23.0 °F 18.4 °F 21.2 °F 93% 29.70 in 0.2 mi West 3.5 mph - N/A Fog Light Freezing Fog
1:42 AM 23.0 °F - 21.2 °F 93% 29.70 in 0.2 mi West 2.3 mph - N/A Fog Light Freezing Fog
1:52 AM 21.2 °F - 21.2 °F 100% 29.70 in 0.2 mi SSW 1.2 mph - N/A Fog Light Freezing Fog
1:58 AM 21.6 °F - 20.3 °F 95% 29.79 in 0.2 mi SW 2.3 mph - 0.00 in Fog Light Freezing Fog
1:59 AM 21.2 °F - 19.4 °F 93% 29.70 in 0.2 mi SW 2.3 mph - N/A Fog Light Freezing Fog
2:01 AM 21.2 °F - 19.4 °F 93% 29.70 in 0.2 mi WSW 1.2 mph - N/A Fog Light Freezing Fog
2:05 AM 21.2 °F - 19.4 °F 93% 29.70 in 0.2 mi SW 2.3 mph - N/A Fog Light Freezing Fog
2:10 AM 21.2 °F - 19.4 °F 93% 29.70 in 0.2 mi SW 2.3 mph - N/A Fog Light Freezing Fog
2:16 AM 21.2 °F - 19.4 °F 93% 29.71 in 0.2 mi SW 2.3 mph - N/A Fog Light Freezing Fog
2:20 AM 21.2 °F - 21.2 °F 100% 29.71 in 0.2 mi SSW 2.3 mph - N/A Fog Light Freezing Fog
2:22 AM 21.2 °F - 21.2 °F 100% 29.71 in 0.5 mi South 2.3 mph - N/A Fog Light Freezing Fog
2:32 AM 21.2 °F - 19.4 °F 93% 29.71 in 0.5 mi South 1.2 mph - N/A Fog Light Freezing Fog
2:45 AM 21.2 °F - 21.2 °F 100% 29.71 in 0.8 mi Calm Calm - N/A   Clear
2:50 AM 21.2 °F - 21.2 °F 100% 29.71 in 0.8 mi South 2.3 mph - N/A   Partly Cloudy
2:54 AM 21.2 °F 16.4 °F 21.2 °F 100% 29.71 in 1.0 mi South 3.5 mph - N/A   Partly Cloudy
2:56 AM 21.2 °F 16.4 °F 21.2 °F 100% 29.71 in 1.2 mi South 3.5 mph - N/A   Partly Cloudy
2:58 AM 21.9 °F 17.2 °F 20.7 °F 95% 29.81 in 1.2 mi South 3.5 mph - N/A   Partly Cloudy
3:00 AM 23.0 °F - 21.2 °F 93% 29.71 in 2.0 mi SSW 2.3 mph - N/A   Partly Cloudy
3:02 AM 23.0 °F 18.4 °F 21.2 °F 93% 29.72 in 4.0 mi SSW 3.5 mph - N/A   Partly Cloudy
3:26 AM 23.0 °F - 21.2 °F 93% 29.73 in 10.0 mi SSW 2.3 mph - N/A   Overcast
3:36 AM 23.0 °F 17.0 °F 23.0 °F 100% 29.73 in 10.0 mi South 4.6 mph - N/A Snow Light Snow
3:46 AM 24.8 °F 20.5 °F 23.0 °F 93% 29.73 in 10.0 mi SSW 3.5 mph - N/A Snow Light Snow
3:58 AM 24.3 °F 19.9 °F 23.4 °F 96% 29.82 in 10.0 mi SW 3.5 mph - 0.00 in Snow Light Snow
4:08 AM 24.8 °F 19.1 °F 23.0 °F 93% 29.73 in 10.0 mi WSW 4.6 mph - N/A Snow Light Snow
4:13 AM 24.8 °F 19.1 °F 23.0 °F 93% 29.73 in 10.0 mi SW 4.6 mph - N/A   Overcast
4:14 AM 24.8 °F 17.9 °F 23.0 °F 93% 29.73 in 10.0 mi SW 5.8 mph - N/A   Light Freezing Drizzle
4:19 AM 24.8 °F - 24.8 °F 100% 29.74 in 10.0 mi SSW 2.3 mph - N/A   Light Freezing Drizzle
4:43 AM 24.8 °F 20.5 °F 24.8 °F 100% 29.73 in 10.0 mi SSW 3.5 mph - N/A   Overcast
4:58 AM 25.0 °F 20.7 °F 24.3 °F 97% 29.83 in 8.0 mi South 3.5 mph - 0.00 in   Overcast
5:15 AM 24.8 °F 20.5 °F 24.8 °F 100% 29.74 in 4.0 mi SSW 3.5 mph - N/A   Overcast
5:20 AM 24.8 °F - 24.8 °F 100% 29.74 in 3.0 mi SSW 2.3 mph - N/A   Overcast
5:28 AM 24.8 °F - 24.8 °F 100% 29.74 in 2.5 mi SSW 2.3 mph - N/A   Overcast
5:30 AM 24.8 °F - 24.8 °F 100% 29.74 in 2.0 mi SW 2.3 mph - N/A   Overcast
5:32 AM 24.8 °F - 23.0 °F 93% 29.74 in 1.8 mi SW 2.3 mph - N/A   Overcast
5:37 AM 24.8 °F 20.5 °F 23.0 °F 93% 29.74 in 1.8 mi SSW 3.5 mph - N/A   Overcast
5:43 AM 24.8 °F 20.5 °F 23.0 °F 93% 29.74 in 2.0 mi SSW 3.5 mph - N/A   Overcast
5:55 AM 24.8 °F 20.5 °F 23.0 °F 93% 29.74 in 1.5 mi SSW 3.5 mph - N/A   Overcast
5:56 AM 24.8 °F 20.5 °F 23.0 °F 93% 29.74 in 1.2 mi SSW 3.5 mph - N/A   Overcast
5:58 AM 24.6 °F - 23.7 °F 96% 29.83 in 1.2 mi South 2.3 mph - 0.00 in   Overcast
5:59 AM 24.8 °F - 23.0 °F 93% 29.74 in 1.0 mi SSW 2.3 mph - N/A   Mist
6:01 AM 24.8 °F - 23.0 °F 93% 29.74 in 0.8 mi South 2.3 mph - N/A   Mist
6:02 AM 24.8 °F - 23.0 °F 93% 29.74 in 0.8 mi South 2.3 mph - N/A   Mist
6:13 AM 24.8 °F - 23.0 °F 93% 29.74 in 0.8 mi South 2.3 mph - N/A   Mist
6:20 AM 24.8 °F - 23.0 °F 93% 29.74 in 0.8 mi South 2.3 mph - N/A   Mist
6:22 AM 24.8 °F - 23.0 °F 93% 29.74 in 0.8 mi South 2.3 mph - N/A   Mist
6:24 AM 24.8 °F - 23.0 °F 93% 29.74 in 1.0 mi South 2.3 mph - N/A   Mist
6:25 AM 24.8 °F - 24.8 °F 100% 29.74 in 1.0 mi South 2.3 mph - N/A   Mist
6:27 AM 24.8 °F - 24.8 °F 100% 29.74 in 1.0 mi SSW 1.2 mph - N/A   Mist
6:28 AM 24.8 °F - 24.8 °F 100% 29.74 in 1.2 mi SW 1.2 mph - N/A   Overcast
6:32 AM 24.8 °F - 24.8 °F 100% 29.74 in 1.5 mi Calm Calm - N/A Snow Light Snow
6:42 AM 24.8 °F - 24.8 °F 100% 29.74 in 1.2 mi ESE 2.3 mph - N/A Snow Light Snow
6:47 AM 24.8 °F 20.5 °F 24.8 °F 100% 29.74 in 1.2 mi ESE 3.5 mph - N/A   Mostly Cloudy
6:50 AM 24.8 °F - 24.8 °F 100% 29.74 in 1.2 mi SE 2.3 mph - N/A   Mostly Cloudy
6:52 AM 24.8 °F - 24.8 °F 100% 29.75 in 1.5 mi SE 2.3 mph - N/A   Mostly Cloudy
6:54 AM 24.8 °F 20.5 °F 24.8 °F 100% 29.75 in 2.0 mi SSE 3.5 mph - N/A   Mostly Cloudy
6:56 AM 24.8 °F 20.5 °F 24.8 °F 100% 29.75 in 3.0 mi SSE 3.5 mph - N/A   Mostly Cloudy
6:58 AM 24.8 °F - 24.1 °F 97% 29.84 in 3.0 mi SSE 2.3 mph - 0.00 in   Mostly Cloudy
6:59 AM 24.8 °F 20.5 °F 24.8 °F 100% 29.75 in 5.0 mi SSE 3.5 mph - N/A   Overcast
7:01 AM 24.8 °F 20.5 °F 24.8 °F 100% 29.75 in 6.0 mi SSE 3.5 mph - N/A   Overcast
7:12 AM 24.8 °F 20.5 °F 24.8 °F 100% 29.75 in 7.0 mi SE 3.5 mph - N/A   Overcast
7:22 AM 24.8 °F 20.5 °F 24.8 °F 100% 29.74 in 9.0 mi SE 3.5 mph - N/A Snow Light Snow
7:27 AM 24.8 °F 20.5 °F 24.8 °F 100% 29.74 in 7.0 mi SE 3.5 mph - N/A Snow Light Snow
7:32 AM 24.8 °F 20.5 °F 24.8 °F 100% 29.74 in 6.0 mi SE 3.5 mph - N/A Snow Light Snow
7:42 AM 24.8 °F - 24.8 °F 100% 29.75 in 8.0 mi ESE 2.3 mph - N/A Snow Light Snow
7:58 AM 25.5 °F - 24.8 °F 97% 29.84 in 10.0 mi SE 2.3 mph - 0.00 in   Overcast
8:02 AM 24.8 °F - 24.8 °F 100% 29.74 in 10.0 mi SE 2.3 mph - N/A   Overcast
8:07 AM 24.8 °F - 24.8 °F 100% 29.74 in 10.0 mi SE 2.3 mph - N/A   Overcast
8:12 AM 26.6 °F - 24.8 °F 93% 29.74 in 10.0 mi SE 2.3 mph - N/A   Overcast
8:32 AM 26.6 °F - 24.8 °F 93% 29.75 in 10.0 mi ESE 2.3 mph - N/A   Overcast
8:42 AM 26.6 °F - 24.8 °F 93% 29.75 in 10.0 mi SE 2.3 mph - N/A   Overcast
8:57 AM 26.6 °F 21.2 °F 26.6 °F 100% 29.75 in 10.0 mi SE 4.6 mph - N/A   Overcast
8:58 AM 26.6 °F 21.2 °F 26.6 °F 100% 29.84 in 10.0 mi SE 4.6 mph - 0.00 in   Overcast
9:01 AM 26.6 °F 21.2 °F 26.6 °F 100% 29.75 in 10.0 mi SE 4.6 mph - N/A   Overcast
9:06 AM 26.6 °F 22.6 °F 26.6 °F 100% 29.75 in 10.0 mi SE 3.5 mph - N/A   Overcast
9:11 AM 28.4 °F 23.3 °F 26.6 °F 93% 29.75 in 7.0 mi SE 4.6 mph - N/A   Overcast
9:15 AM 28.4 °F 23.3 °F 26.6 °F 93% 29.75 in 1.5 mi SE 4.6 mph - N/A   Overcast
9:16 AM 28.4 °F 23.3 °F 26.6 °F 93% 29.75 in 1.0 mi SE 4.6 mph - N/A   Overcast
9:17 AM 28.4 °F 23.3 °F 26.6 °F 93% 29.75 in 0.8 mi SE 4.6 mph - N/A   Overcast
9:19 AM 28.4 °F 23.3 °F 28.4 °F 100% 29.75 in 0.5 mi SE 4.6 mph - N/A Fog Light Freezing Fog
9:20 AM 28.4 °F 23.3 °F 28.4 °F 100% 29.75 in 0.2 mi SE 4.6 mph - N/A Fog Light Freezing Fog
9:21 AM 28.4 °F 23.3 °F 28.4 °F 100% 29.75 in 0.2 mi SE 4.6 mph - N/A Fog Light Freezing Fog
9:22 AM 28.4 °F 23.3 °F 28.4 °F 100% 29.75 in 0.2 mi SE 4.6 mph - N/A Fog Light Freezing Fog
9:23 AM 28.4 °F 23.3 °F 28.4 °F 100% 29.75 in 0.2 mi SE 4.6 mph - N/A Fog Light Freezing Fog
9:24 AM 28.4 °F 23.3 °F 28.4 °F 100% 29.75 in 0.2 mi SE 4.6 mph - N/A Fog Light Freezing Fog
9:49 AM 28.4 °F 24.6 °F 28.4 °F 100% 29.76 in 0.2 mi SSE 3.5 mph - N/A Fog Light Freezing Fog
9:55 AM 28.4 °F 24.6 °F 28.4 °F 100% 29.76 in 0.2 mi SSE 3.5 mph - N/A Fog Light Freezing Fog
9:58 AM 29.3 °F - 29.1 °F 99% 29.84 in 0.2 mi SE 2.3 mph - 0.00 in Fog , Snow Light Freezing Fog
10:06 AM 30.2 °F 25.4 °F 30.2 °F 100% 29.76 in 0.2 mi SSE 4.6 mph - N/A Fog Light Freezing Fog
10:35 AM 32.0 °F - 30.2 °F 93% 29.77 in 0.2 mi SE 2.3 mph - N/A Fog Light Freezing Fog
10:53 AM 32.0 °F - 32.0 °F 100% 29.76 in 0.2 mi ESE 1.2 mph - N/A Fog Light Freezing Fog
10:58 AM 30.7 °F - 30.6 °F 99% 29.84 in 0.2 mi ESE 2.3 mph - 0.00 in Fog Light Freezing Fog
11:38 AM 32.0 °F - 32.0 °F 100% 29.76 in 0.2 mi SSW 2.3 mph - N/A Fog Light Freezing Fog
11:57 AM 32.0 °F - 32.0 °F 100% 29.76 in 0.2 mi SW 2.3 mph - N/A Fog Light Freezing Fog
11:58 AM 31.6 °F - 31.5 °F 99% 29.85 in 0.2 mi SW 2.3 mph - 0.00 in Fog Light Freezing Fog
12:02 PM 32.0 °F - 32.0 °F 100% 29.76 in 0.2 mi Variable 1.2 mph - N/A Fog Light Freezing Fog
12:07 PM 32.0 °F - 32.0 °F 100% 29.76 in 0.2 mi Variable 2.3 mph - N/A Fog Light Freezing Fog
12:17 PM 32.0 °F 26.4 °F 32.0 °F 100% 29.75 in 0.2 mi SW 5.8 mph - N/A Fog Light Freezing Fog
12:19 PM 32.0 °F 24.8 °F 32.0 °F 100% 29.76 in 0.2 mi SSW 8.1 mph - N/A Fog Light Freezing Fog
12:21 PM 32.0 °F 24.8 °F 32.0 °F 100% 29.75 in 0.2 mi SW 8.1 mph - N/A Fog Light Freezing Fog
12:23 PM 32.0 °F 24.2 °F 32.0 °F 100% 29.75 in 0.2 mi SW 9.2 mph - N/A Fog Light Freezing Fog
12:25 PM 32.0 °F 24.2 °F 32.0 °F 100% 29.75 in 0.5 mi SSW 9.2 mph - N/A Fog Light Freezing Fog
12:30 PM 32.0 °F 25.6 °F 32.0 °F 100% 29.75 in 0.5 mi SSW 6.9 mph - N/A Fog Light Freezing Fog
12:31 PM 32.0 °F 26.4 °F 32.0 °F 100% 29.75 in 0.5 mi SSW 5.8 mph - N/A Fog Light Freezing Fog
12:32 PM 32.0 °F 26.4 °F 32.0 °F 100% 29.75 in 0.5 mi SSW 5.8 mph - N/A Fog Light Freezing Fog
12:34 PM 32.0 °F 24.8 °F 32.0 °F 100% 29.75 in 0.5 mi SSW 8.1 mph - N/A Fog Light Freezing Fog
12:36 PM 32.0 °F 25.6 °F 32.0 °F 100% 29.75 in 0.5 mi SSW 6.9 mph - N/A Fog Light Freezing Fog
12:38 PM 32.0 °F 24.8 °F 32.0 °F 100% 29.75 in 0.5 mi SSW 8.1 mph - N/A Fog Light Freezing Fog
12:40 PM 32.0 °F 24.8 °F 32.0 °F 100% 29.75 in 0.8 mi SSW 8.1 mph - N/A   Mist
12:42 PM 32.0 °F 24.8 °F 32.0 °F 100% 29.75 in 0.8 mi SSW 8.1 mph - N/A   Mist
12:44 PM 32.0 °F 24.8 °F 32.0 °F 100% 29.75 in 1.0 mi SSW 8.1 mph - N/A   Mist
12:49 PM 32.0 °F 24.8 °F 32.0 °F 100% 29.75 in 1.0 mi SSW 8.1 mph - N/A   Mist
12:53 PM 32.0 °F 24.8 °F 32.0 °F 100% 29.75 in 1.0 mi SSW 8.1 mph - N/A   Mist
12:55 PM 32.0 °F 25.6 °F 32.0 °F 100% 29.75 in 0.8 mi SSW 6.9 mph - N/A   Mist
12:56 PM 32.0 °F 26.4 °F 32.0 °F 100% 29.75 in 0.8 mi SSW 5.8 mph - N/A   Mist
12:58 PM 32.0 °F 25.6 °F 32.0 °F 100% 29.83 in 0.8 mi SW 6.9 mph - 0.00 in   Mist
1:02 PM 32.0 °F 26.4 °F 32.0 °F 100% 29.75 in 0.5 mi SSW 5.8 mph - N/A Fog Light Freezing Fog
1:05 PM 32.0 °F 24.2 °F 32.0 °F 100% 29.75 in 0.5 mi SSW 9.2 mph - N/A Fog Light Freezing Fog
1:08 PM 32.0 °F 25.6 °F 32.0 °F 100% 29.75 in 0.5 mi SSW 6.9 mph - N/A Fog Light Freezing Fog
1:10 PM 32.0 °F 25.6 °F 32.0 °F 100% 29.75 in 0.5 mi SSW 6.9 mph - N/A Fog Light Freezing Fog
1:11 PM 32.0 °F 25.6 °F 32.0 °F 100% 29.75 in 0.5 mi SSW 6.9 mph - N/A Fog Light Freezing Fog
1:12 PM 32.0 °F 25.6 °F 32.0 °F 100% 29.75 in 0.8 mi South 6.9 mph - N/A   Mist
1:14 PM 32.0 °F 25.6 °F 32.0 °F 100% 29.75 in 1.2 mi SSW 6.9 mph - N/A   Overcast
1:16 PM 32.0 °F 24.8 °F 32.0 °F 100% 29.75 in 2.0 mi SSW 8.1 mph - N/A   Overcast
1:18 PM 32.0 °F 24.8 °F 32.0 °F 100% 29.75 in 3.0 mi SSW 8.1 mph - N/A   Overcast
1:58 PM 31.1 °F 25.4 °F 30.9 °F 99% 29.84 in 3.0 mi WSW 5.8 mph - 0.00 in   Overcast
2:07 PM 32.0 °F 25.6 °F 32.0 °F 100% 29.76 in 4.0 mi SW 6.9 mph - N/A   Overcast
2:22 PM 32.0 °F - 32.0 °F 100% 29.76 in 7.0 mi SW 2.3 mph - N/A   Overcast
2:46 PM 32.0 °F - 32.0 °F 100% 29.76 in 2.0 mi WSW 2.3 mph - N/A   Overcast
2:48 PM 32.0 °F - 32.0 °F 100% 29.76 in 1.5 mi SW 2.3 mph - N/A   Overcast
2:50 PM 32.0 °F - 32.0 °F 100% 29.76 in 1.2 mi SW 2.3 mph - N/A   Overcast
2:51 PM 32.0 °F - 32.0 °F 100% 29.76 in 1.0 mi SW 2.3 mph - N/A   Mist
2:53 PM 32.0 °F - 32.0 °F 100% 29.76 in 1.0 mi WSW 2.3 mph - N/A   Mist
2:55 PM 32.0 °F - 32.0 °F 100% 29.76 in 0.8 mi WSW 2.3 mph - N/A   Mist
2:57 PM 32.0 °F - 32.0 °F 100% 29.76 in 1.0 mi Calm Calm - N/A   Mist
2:58 PM 32.0 °F - 32.0 °F 100% 29.85 in 1.0 mi NNW 1.2 mph - 0.00 in   Mist
3:01 PM 32.0 °F - 32.0 °F 100% 29.76 in 1.2 mi Variable 2.3 mph - N/A   Overcast
3:03 PM 32.0 °F 26.4 °F 32.0 °F 100% 29.76 in 1.5 mi Variable 5.8 mph - N/A   Overcast
3:05 PM 32.0 °F 26.4 °F 32.0 °F 100% 29.76 in 1.8 mi ENE 5.8 mph - N/A   Overcast
3:07 PM 32.0 °F 27.5 °F 32.0 °F 100% 29.76 in 2.0 mi NE 4.6 mph - N/A   Overcast
3:09 PM 32.0 °F 26.4 °F 32.0 °F 100% 29.76 in 2.5 mi NNE 5.8 mph - N/A   Overcast
3:11 PM 32.0 °F 26.4 °F 32.0 °F 100% 29.76 in 3.0 mi NNE 5.8 mph - N/A   Overcast
3:22 PM 32.0 °F 25.6 °F 32.0 °F 100% 29.77 in 3.0 mi NNE 6.9 mph - N/A   Overcast
3:37 PM 32.0 °F 24.8 °F 32.0 °F 100% 29.77 in 3.0 mi NNE 8.1 mph - N/A   Overcast
3:51 PM 30.2 °F 23.4 °F 30.2 °F 100% 29.77 in 2.5 mi NNE 6.9 mph - N/A   Overcast
3:58 PM 30.2 °F 23.4 °F 30.0 °F 99% 29.85 in 2.5 mi NNE 6.9 mph - 0.00 in   Overcast
4:47 PM 30.2 °F 24.3 °F 30.2 °F 100% 29.78 in 1.8 mi NE 5.8 mph - N/A   Overcast
4:51 PM 30.2 °F 24.3 °F 30.2 °F 100% 29.78 in 2.0 mi NE 5.8 mph - N/A   Overcast
4:58 PM 30.0 °F 23.2 °F 29.8 °F 99% 29.86 in 2.0 mi NE 6.9 mph - 0.00 in   Overcast
5:02 PM 30.2 °F 23.4 °F 30.2 °F 100% 29.78 in 2.5 mi NE 6.9 mph - N/A   Overcast
5:03 PM 30.2 °F 23.4 °F 30.2 °F 100% 29.78 in 2.5 mi NE 6.9 mph - N/A   Overcast
5:05 PM 30.2 °F 23.4 °F 30.2 °F 100% 29.78 in 3.0 mi NE 6.9 mph - N/A   Overcast
5:20 PM 30.2 °F 22.6 °F 28.4 °F 93% 29.79 in 10.0 mi NE 8.1 mph - N/A   Overcast
5:35 PM 28.4 °F 19.7 °F 28.4 °F 100% 29.79 in 10.0 mi NE 9.2 mph - N/A   Overcast
5:45 PM 28.4 °F 20.4 °F 28.4 °F 100% 29.79 in 10.0 mi NE 8.1 mph - N/A   Overcast
5:50 PM 28.4 °F 20.4 °F 28.4 °F 100% 29.79 in 7.0 mi NE 8.1 mph - N/A Snow Light Snow
5:58 PM 28.9 °F 21.1 °F 28.8 °F 99% 29.88 in 4.0 mi NE 8.1 mph - 0.00 in Snow Light Snow
6:03 PM 28.4 °F 20.4 °F 28.4 °F 100% 29.79 in 4.0 mi NE 8.1 mph - N/A Snow Light Snow
6:28 PM 28.4 °F 21.2 °F 28.4 °F 100% 29.80 in 9.0 mi NE 6.9 mph - N/A Snow Light Snow
6:41 PM 28.4 °F 22.2 °F 28.4 °F 100% 29.80 in 10.0 mi NNE 5.8 mph - N/A   Overcast
6:58 PM 28.2 °F 23.1 °F 27.9 °F 99% 29.89 in 10.0 mi NNE 4.6 mph - 0.00 in   Overcast
7:07 PM 28.4 °F 23.3 °F 28.4 °F 100% 29.81 in 10.0 mi NE 4.6 mph - N/A   Overcast
7:22 PM 28.4 °F 22.2 °F 28.4 °F 100% 29.81 in 10.0 mi NNE 5.8 mph - N/A   Overcast
7:29 PM 28.4 °F 21.2 °F 28.4 °F 100% 29.81 in 9.0 mi NNE 6.9 mph - N/A Snow Light Snow
7:58 PM 27.7 °F 19.6 °F 27.5 °F 99% 29.91 in 9.0 mi NE 8.1 mph - 0.00 in Snow Light Snow
8:14 PM 26.6 °F 19.1 °F 26.6 °F 100% 29.82 in 7.0 mi ENE 6.9 mph - N/A   Overcast
8:20 PM 26.6 °F 19.1 °F 26.6 °F 100% 29.82 in 6.0 mi ENE 6.9 mph - N/A   Overcast
8:33 PM 26.6 °F 20.0 °F 26.6 °F 100% 29.82 in 7.0 mi ENE 5.8 mph - N/A   Overcast
8:39 PM 26.6 °F 20.0 °F 26.6 °F 100% 29.82 in 7.0 mi ENE 5.8 mph - N/A   Overcast
8:51 PM 26.6 °F 20.0 °F 26.6 °F 100% 29.83 in 7.0 mi ENE 5.8 mph - N/A   Overcast
8:57 PM 26.6 °F 20.0 °F 26.6 °F 100% 29.83 in 8.0 mi ENE 5.8 mph - N/A   Overcast
8:58 PM 26.8 °F 20.2 °F 26.2 °F 98% 29.92 in 8.0 mi ENE 5.8 mph - 0.00 in   Overcast
9:30 PM 26.6 °F 19.1 °F 26.6 °F 100% 29.84 in 8.0 mi ENE 6.9 mph - N/A   Overcast
9:34 PM 26.6 °F 20.0 °F 26.6 °F 100% 29.84 in 7.0 mi NE 5.8 mph - N/A   Overcast
9:44 PM 26.6 °F 20.0 °F 26.6 °F 100% 29.84 in 6.0 mi NE 5.8 mph - N/A Snow Light Snow
9:58 PM 26.4 °F 18.9 °F 25.9 °F 98% 29.92 in 7.0 mi NE 6.9 mph - N/A   Overcast
9:59 PM 26.6 °F 20.0 °F 26.6 °F 100% 29.84 in 7.0 mi NE 5.8 mph - N/A Snow Light Snow
10:23 PM 26.6 °F 18.2 °F 24.8 °F 93% 29.84 in 10.0 mi ENE 8.1 mph - N/A   Overcast
10:32 PM 26.6 °F 18.2 °F 24.8 °F 93% 29.84 in 10.0 mi NE 8.1 mph - N/A   Overcast
10:37 PM 26.6 °F 18.2 °F 24.8 °F 93% 29.84 in 9.0 mi NE 8.1 mph - N/A   Overcast
10:42 PM 26.6 °F 18.2 °F 24.8 °F 93% 29.84 in 10.0 mi ENE 8.1 mph - N/A   Overcast
10:58 PM 25.7 °F 18.0 °F 25.0 °F 97% 29.92 in 10.0 mi NE 6.9 mph - 0.00 in   Overcast
10:59 PM 24.8 °F 16.9 °F 24.8 °F 100% 29.84 in 10.0 mi NE 6.9 mph - N/A   Overcast
11:10 PM 24.8 °F 16.1 °F 24.8 °F 100% 29.85 in 10.0 mi NE 8.1 mph - N/A   Overcast
11:30 PM 24.8 °F 17.9 °F 24.8 °F 100% 29.85 in 10.0 mi ENE 5.8 mph - N/A   Overcast
11:40 PM 24.8 °F 16.9 °F 24.8 °F 100% 29.85 in 10.0 mi ENE 6.9 mph - N/A   Overcast
11:50 PM 24.8 °F 17.9 °F 24.8 °F 100% 29.85 in 10.0 mi ENE 5.8 mph - N/A   Overcast
11:58 PM 25.0 °F 18.1 °F 24.3 °F 97% 29.94 in 10.0 mi ENE 5.8 mph - 0.00 in   Overcast